| time (UTC) | temp C | wind direction | speed KPH | gust KPH | rain 1hr cm | rain 24hr cm | rain mn cm | humidity % | barometer mb |
| 20260504184504 | 25 | 171 | 0.0 | 6.4 | 0.00 | 0.00 | 0.00 | 34 | 1013.6 |
| 20260504184009 | 25 | 147 | 0.0 | 8.0 | 0.00 | 0.00 | 0.00 | 35 | 1013.6 |
| 20260504183604 | 25 | 169 | 0.0 | 8.0 | 0.00 | 0.00 | 0.00 | 35 | 1013.7 |
| 20260504183004 | 25 | 203 | 0.0 | 0.0 | 0.00 | 0.00 | 0.00 | 33 | 1013.7 |
| 20260504182509 | 25 | 105 | 0.0 | 0.0 | 0.00 | 0.00 | 0.00 | 36 | 1013.8 |
| 20260504182103 | 25 | 20 | 0.0 | 0.0 | 0.00 | 0.00 | 0.00 | 34 | 1013.8 |
| 20260504181503 | 25 | 219 | 0.0 | 3.2 | 0.00 | 0.00 | 0.00 | 34 | 1013.8 |
| 20260504181010 | 25 | 179 | 0.0 | 9.7 | 0.00 | 0.00 | 0.00 | 36 | 1013.9 |
| 20260504180604 | 25 | 183 | 0.0 | 9.7 | 0.00 | 0.00 | 0.00 | 36 | 1014.0 |
| 20260504180007 | 25 | 181 | 0.0 | 8.0 | 0.00 | 0.00 | 0.00 | 34 | 1014.1 |
| 20260504175512 | 25 | 167 | 0.0 | 8.0 | 0.00 | 0.00 | 0.00 | 36 | 1014.0 |
| 20260504175103 | 25 | 160 | 0.0 | 1.6 | 0.00 | 0.00 | 0.00 | 35 | 1014.0 |
| 20260504174504 | 25 | 179 | 0.0 | 8.0 | 0.00 | 0.00 | 0.00 | 36 | 1014.1 |
| 20260504174009 | 25 | 169 | 0.0 | 4.8 | 0.00 | 0.00 | 0.00 | 35 | 1014.2 |
| 20260504173606 | 25 | 157 | 0.0 | 4.8 | 0.00 | 0.00 | 0.00 | 36 | 1014.3 |
| 20260504173003 | 25 | 124 | 0.0 | 6.4 | 0.00 | 0.00 | 0.00 | 34 | 1014.3 |
| 20260504172508 | 25 | 166 | 0.0 | 6.4 | 0.00 | 0.00 | 0.00 | 35 | 1014.4 |
| 20260504172103 | 25 | 254 | 0.0 | 0.0 | 0.00 | 0.00 | 0.00 | 35 | 1014.4 |
| 20260504171503 | 24 | 143 | 0.0 | 1.6 | 0.00 | 0.00 | 0.00 | 37 | 1014.5 |
| 20260504171009 | 24 | 174 | 0.0 | 9.7 | 0.00 | 0.00 | 0.00 | 37 | 1014.5 |
| 20260504170602 | 23 | 150 | 0.0 | 9.7 | 0.00 | 0.00 | 0.00 | 37 | 1014.7 |
| 20260504151010 | 20 | 184 | 0.0 | 0.0 | 0.00 | 0.00 | 0.00 | 43 | 1016.2 |
| 20260504150604 | 20 | 179 | 0.0 | 6.4 | 0.00 | 0.00 | 0.00 | 44 | 1016.2 |
| 20260504141008 | 15 | 206 | 0.0 | 1.6 | 0.00 | 0.00 | 0.00 | 65 | 1016.2 |
| 20260504140604 | 15 | 206 | 0.0 | 1.6 | 0.00 | 0.00 | 0.00 | 65 | 1016.2 |
| 20260504130603 | 9 | 181 | 0.0 | 1.6 | 0.00 | 0.00 | 0.00 | 87 | 1016.2 |
| 20260504110605 | 3 | 169 | 0.0 | 0.0 | 0.00 | 0.00 | 0.00 | 93 | 1016.3 |
| 20260504100603 | 3 | 169 | 0.0 | 0.0 | 0.00 | 0.00 | 0.00 | 92 | 1016.2 |
| 20260504081503 | 4 | 169 | 0.0 | 0.0 | 0.00 | 0.00 | 0.00 | 90 | 1016.1 |
| 20260504081010 | 5 | 169 | 0.0 | 0.0 | 0.00 | 0.00 | 0.00 | 90 | 1016.1 |
| 20260504080603 | 5 | 169 | 0.0 | 0.0 | 0.00 | 0.00 | 0.00 | 90 | 1016.0 |
| 20260504050602 | 6 | 169 | 0.0 | 0.0 | 0.00 | 0.00 | 0.00 | 83 | 1016.2 |
| 20260504050002 | 6 | 169 | 0.0 | 0.0 | 0.00 | 0.00 | 0.00 | 83 | 1016.2 |
| 20260504045511 | 6 | 169 | 0.0 | 0.0 | 0.00 | 0.00 | 0.00 | 83 | 1016.2 |
| 20260504045102 | 6 | 169 | 0.0 | 0.0 | 0.00 | 0.00 | 0.00 | 82 | 1016.1 |
| 20260504044502 | 6 | 169 | 0.0 | 0.0 | 0.00 | 0.00 | 0.00 | 82 | 1016.1 |
| 20260504044010 | 6 | 169 | 0.0 | 0.0 | 0.00 | 0.00 | 0.00 | 82 | 1016.0 |
| 20260504043604 | 6 | 169 | 0.0 | 0.0 | 0.00 | 0.00 | 0.00 | 82 | 1016.0 |
| 20260504043110 | 6 | 169 | 0.0 | 0.0 | 0.00 | 0.00 | 0.00 | 82 | 1016.1 |
| 20260504042509 | 6 | 169 | 0.0 | 0.0 | 0.00 | 0.00 | 0.00 | 82 | 1016.1 |
| 20260504042102 | 6 | 169 | 0.0 | 0.0 | 0.00 | 0.00 | 0.00 | 82 | 1016.1 |
| 20260504041503 | 6 | 169 | 0.0 | 0.0 | 0.00 | 0.00 | 0.00 | 82 | 1016.1 |
| 20260504041003 | 6 | 169 | 0.0 | 0.0 | 0.00 | 0.00 | 0.00 | 81 | 1016.1 |
| 20260504040605 | 6 | 169 | 0.0 | 0.0 | 0.00 | 0.00 | 0.00 | 81 | 1016.1 |
| 20260504040003 | 6 | 169 | 0.0 | 0.0 | 0.00 | 0.00 | 0.00 | 81 | 1016.2 |
| 20260504035512 | 6 | 169 | 0.0 | 0.0 | 0.00 | 0.00 | 0.00 | 81 | 1016.1 |
| 20260504035103 | 6 | 169 | 0.0 | 0.0 | 0.00 | 0.00 | 0.00 | 80 | 1016.2 |
| 20260504034502 | 6 | 169 | 0.0 | 0.0 | 0.00 | 0.00 | 0.00 | 80 | 1016.2 |
| 20260504034011 | 6 | 169 | 0.0 | 0.0 | 0.00 | 0.00 | 0.00 | 80 | 1016.3 |
| 20260504033602 | 7 | 169 | 0.0 | 0.0 | 0.00 | 0.00 | 0.00 | 79 | 1016.3 |
| 20260504033006 | 7 | 169 | 0.0 | 0.0 | 0.00 | 0.00 | 0.00 | 79 | 1016.2 |
| 20260504032513 | 7 | 169 | 0.0 | 0.0 | 0.00 | 0.00 | 0.00 | 78 | 1016.2 |
| 20260504032103 | 7 | 169 | 0.0 | 0.0 | 0.00 | 0.00 | 0.00 | 78 | 1016.3 |
| 20260504031505 | 7 | 169 | 0.0 | 0.0 | 0.00 | 0.00 | 0.00 | 78 | 1016.3 |
| 20260504031009 | 7 | 169 | 0.0 | 0.0 | 0.00 | 0.00 | 0.00 | 78 | 1016.4 |
| 20260504030605 | 7 | 169 | 0.0 | 0.0 | 0.00 | 0.00 | 0.00 | 77 | 1016.4 |
| 20260504030002 | 7 | 169 | 0.0 | 0.0 | 0.00 | 0.00 | 0.00 | 77 | 1016.3 |
| 20260504025510 | 7 | 169 | 0.0 | 0.0 | 0.00 | 0.00 | 0.00 | 77 | 1016.2 |
| 20260504025104 | 7 | 169 | 0.0 | 0.0 | 0.00 | 0.00 | 0.00 | 76 | 1016.2 |
| 20260504024503 | 7 | 169 | 0.0 | 0.0 | 0.00 | 0.00 | 0.00 | 76 | 1016.2 |
| 20260504024008 | 7 | 169 | 0.0 | 0.0 | 0.00 | 0.00 | 0.00 | 75 | 1016.1 |
| 20260504023604 | 7 | 169 | 0.0 | 0.0 | 0.00 | 0.00 | 0.00 | 75 | 1016.0 |
| 20260504023003 | 7 | 169 | 0.0 | 0.0 | 0.00 | 0.00 | 0.00 | 74 | 1016.0 |
| 20260504022509 | 8 | 169 | 0.0 | 0.0 | 0.00 | 0.00 | 0.00 | 74 | 1016.0 |
| 20260504022103 | 8 | 169 | 0.0 | 0.0 | 0.00 | 0.00 | 0.00 | 74 | 1016.0 |
| 20260504021502 | 8 | 169 | 0.0 | 0.0 | 0.00 | 0.00 | 0.00 | 73 | 1015.8 |
| 20260504021009 | 8 | 169 | 0.0 | 0.0 | 0.00 | 0.00 | 0.00 | 73 | 1015.7 |
| 20260504020603 | 8 | 169 | 0.0 | 0.0 | 0.00 | 0.00 | 0.00 | 72 | 1015.7 |
| 20260504020006 | 8 | 169 | 0.0 | 0.0 | 0.00 | 0.00 | 0.00 | 72 | 1015.6 |
| 20260504015509 | 8 | 169 | 0.0 | 0.0 | 0.00 | 0.00 | 0.00 | 71 | 1015.6 |
| 20260504015103 | 8 | 169 | 0.0 | 0.0 | 0.00 | 0.00 | 0.00 | 70 | 1015.5 |
| 20260504014503 | 9 | 169 | 0.0 | 0.0 | 0.00 | 0.00 | 0.00 | 70 | 1015.5 |
| 20260504014009 | 9 | 169 | 0.0 | 0.0 | 0.00 | 0.00 | 0.00 | 69 | 1015.5 |
| 20260504013603 | 9 | 169 | 0.0 | 0.0 | 0.00 | 0.00 | 0.00 | 68 | 1015.5 |
| 20260504013005 | 10 | 169 | 0.0 | 0.0 | 0.00 | 0.00 | 0.00 | 68 | 1015.4 |
| 20260504012510 | 10 | 169 | 0.0 | 0.0 | 0.00 | 0.00 | 0.00 | 67 | 1015.4 |
| 20260504012102 | 10 | 169 | 0.0 | 0.0 | 0.00 | 0.00 | 0.00 | 66 | 1015.4 |
| 20260504011502 | 10 | 169 | 0.0 | 0.0 | 0.00 | 0.00 | 0.00 | 66 | 1015.4 |
| 20260504011008 | 10 | 169 | 0.0 | 0.0 | 0.00 | 0.00 | 0.00 | 65 | 1015.3 |
| 20260504010605 | 10 | 169 | 0.0 | 0.0 | 0.00 | 0.00 | 0.00 | 64 | 1015.3 |
| 20260504010002 | 11 | 169 | 0.0 | 0.0 | 0.00 | 0.00 | 0.00 | 63 | 1015.2 |
| 20260504005508 | 11 | 169 | 0.0 | 0.0 | 0.00 | 0.00 | 0.00 | 62 | 1015.1 |
| 20260504005105 | 11 | 169 | 0.0 | 0.0 | 0.00 | 0.00 | 0.00 | 61 | 1015.2 |
| 20260504004502 | 11 | 169 | 0.0 | 0.0 | 0.00 | 0.00 | 0.00 | 59 | 1015.1 |
| 20260504004009 | 12 | 169 | 0.0 | 0.0 | 0.00 | 0.00 | 0.00 | 58 | 1015.0 |
| 20260504003604 | 12 | 169 | 0.0 | 0.0 | 0.00 | 0.00 | 0.00 | 57 | 1015.1 |
| 20260504003003 | 12 | 169 | 0.0 | 0.0 | 0.00 | 0.00 | 0.00 | 56 | 1015.0 |
| 20260504002509 | 13 | 169 | 0.0 | 0.0 | 0.00 | 0.00 | 0.00 | 54 | 1015.0 |
| 20260504002102 | 13 | 169 | 0.0 | 0.0 | 0.00 | 0.00 | 0.00 | 53 | 1014.9 |
| 20260504001502 | 13 | 169 | 0.0 | 0.0 | 0.00 | 0.00 | 0.00 | 51 | 1014.9 |
| 20260504001009 | 13 | 169 | 0.0 | 0.0 | 0.00 | 0.00 | 0.00 | 50 | 1014.8 |
| 20260504000604 | 14 | 169 | 0.0 | 0.0 | 0.00 | 0.00 | 0.00 | 49 | 1014.8 |
| 20260504000008 | 14 | 169 | 0.0 | 0.0 | 0.00 | 0.00 | 0.00 | 47 | 1014.8 |
| 20260503235510 | 15 | 169 | 0.0 | 0.0 | 0.00 | 0.00 | 0.00 | 46 | 1014.8 |
| 20260503235104 | 15 | 169 | 0.0 | 0.0 | 0.00 | 0.00 | 0.00 | 45 | 1014.9 |
| 20260503234502 | 15 | 169 | 0.0 | 0.0 | 0.00 | 0.00 | 0.00 | 44 | 1014.8 |
| 20260503234009 | 15 | 169 | 0.0 | 0.0 | 0.00 | 0.00 | 0.00 | 44 | 1014.9 |
| 20260503233604 | 16 | 169 | 0.0 | 0.0 | 0.00 | 0.00 | 0.00 | 41 | 1014.8 |
| 20260503233006 | 16 | 169 | 0.0 | 0.0 | 0.00 | 0.00 | 0.00 | 39 | 1014.8 |
| 20260503232509 | 16 | 169 | 0.0 | 0.0 | 0.00 | 0.00 | 0.00 | 40 | 1014.8 |
| 20260503232102 | 16 | 169 | 0.0 | 0.0 | 0.00 | 0.00 | 0.00 | 37 | 1014.8 |
| 20260503231502 | 16 | 169 | 0.0 | 0.0 | 0.00 | 0.00 | 0.00 | 39 | 1014.7 |
| 20260503231009 | 16 | 169 | 0.0 | 1.6 | 0.00 | 0.00 | 0.00 | 39 | 1014.8 |
| 20260503230604 | 16 | 169 | 0.0 | 1.6 | 0.00 | 0.00 | 0.00 | 38 | 1014.8 |
| 20260503230002 | 17 | 200 | 0.0 | 0.0 | 0.00 | 0.00 | 0.00 | 38 | 1014.8 |
| 20260503225509 | 17 | 200 | 0.0 | 0.0 | 0.00 | 0.00 | 0.00 | 36 | 1014.8 |
| 20260503225103 | 17 | 185 | 0.0 | 0.0 | 0.00 | 0.00 | 0.00 | 37 | 1015.0 |
| 20260503224502 | 17 | 143 | 0.0 | 0.0 | 0.00 | 0.00 | 0.00 | 38 | 1015.0 |
| 20260503224009 | 17 | 198 | 0.0 | 8.0 | 0.00 | 0.00 | 0.00 | 35 | 1015.0 |
| 20260503223604 | 17 | 231 | 0.0 | 8.0 | 0.00 | 0.00 | 0.00 | 35 | 1015.0 |
| 20260503223003 | 17 | 159 | 0.0 | 1.6 | 0.00 | 0.00 | 0.00 | 34 | 1015.0 |
| 20260503222508 | 17 | 166 | 0.0 | 1.6 | 0.00 | 0.00 | 0.00 | 34 | 1015.1 |
| 20260503222104 | 17 | 181 | 0.0 | 0.0 | 0.00 | 0.00 | 0.00 | 34 | 1015.1 |
| 20260503221502 | 17 | 169 | 0.0 | 0.0 | 0.00 | 0.00 | 0.00 | 34 | 1015.1 |
| 20260503221009 | 17 | 77 | 0.0 | 1.6 | 0.00 | 0.00 | 0.00 | 33 | 1015.2 |
| 20260503220602 | 17 | 187 | 0.0 | 3.2 | 0.00 | 0.00 | 0.00 | 38 | 1015.2 |
| 20260503220003 | 17 | 150 | 0.0 | 8.0 | 0.00 | 0.00 | 0.00 | 34 | 1015.4 |
| 20260503215507 | 17 | 190 | 0.0 | 9.7 | 0.00 | 0.00 | 0.00 | 32 | 1015.4 |
| 20260503215102 | 17 | 167 | 0.0 | 9.7 | 0.00 | 0.00 | 0.00 | 34 | 1015.5 |
| 20260503214502 | 18 | 161 | 0.0 | 3.2 | 0.00 | 0.00 | 0.00 | 32 | 1015.4 |
| 20260503214014 | 18 | 154 | 0.0 | 0.0 | 0.00 | 0.00 | 0.00 | 32 | 1015.5 |
| 20260503213605 | 18 | 155 | 0.0 | 1.6 | 0.00 | 0.00 | 0.00 | 32 | 1015.5 |
| 20260503213003 | 18 | 205 | 0.0 | 1.6 | 0.00 | 0.00 | 0.00 | 32 | 1015.5 |
| 20260503212509 | 18 | 187 | 0.0 | 0.0 | 0.00 | 0.00 | 0.00 | 32 | 1015.6 |
| 20260503212103 | 18 | 180 | 0.0 | 11.3 | 0.00 | 0.00 | 0.00 | 31 | 1015.6 |
| 20260503211502 | 19 | 232 | 0.0 | 11.3 | 0.00 | 0.00 | 0.00 | 31 | 1015.8 |
| 20260503211010 | 19 | 183 | 0.0 | 6.4 | 0.00 | 0.00 | 0.00 | 32 | 1015.7 |
| 20260503210602 | 20 | 69 | 0.0 | 6.4 | 0.00 | 0.00 | 0.00 | 29 | 1015.7 |
| 20260503210003 | 20 | 43 | 0.0 | 0.0 | 0.00 | 0.00 | 0.00 | 27 | 1015.7 |
| 20260503205509 | 20 | 151 | 0.0 | 6.4 | 0.00 | 0.00 | 0.00 | 28 | 1015.7 |
| 20260503205104 | 20 | 171 | 0.0 | 11.3 | 0.00 | 0.00 | 0.00 | 29 | 1015.7 |
| 20260503204503 | 20 | 147 | 1.6 | 12.9 | 0.00 | 0.00 | 0.00 | 29 | 1015.8 |
| 20260503204008 | 20 | 182 | 1.6 | 12.9 | 0.00 | 0.00 | 0.00 | 26 | 1015.8 |
| 20260503203602 | 20 | 229 | 0.0 | 8.0 | 0.00 | 0.00 | 0.00 | 29 | 1015.9 |
| 20260503203003 | 20 | 346 | 1.6 | 14.5 | 0.00 | 0.00 | 0.00 | 28 | 1016.1 |
| 20260503202508 | 20 | 207 | 1.6 | 14.5 | 0.00 | 0.00 | 0.00 | 28 | 1016.0 |
| 20260503202106 | 20 | 169 | 1.6 | 12.9 | 0.00 | 0.00 | 0.00 | 28 | 1016.2 |
| 20260503201502 | 20 | 27 | 0.0 | 6.4 | 0.00 | 0.00 | 0.00 | 29 | 1016.3 |
| 20260503201008 | 20 | 157 | 0.0 | 4.8 | 0.00 | 0.00 | 0.00 | 30 | 1016.2 |
| 20260503200606 | 20 | 186 | 0.0 | 4.8 | 0.00 | 0.00 | 0.00 | 29 | 1016.4 |
| 20260503200002 | 20 | 169 | 0.0 | 8.0 | 0.00 | 0.00 | 0.00 | 27 | 1016.5 |
| 20260503195508 | 20 | 143 | 1.6 | 8.0 | 0.00 | 0.00 | 0.00 | 27 | 1016.6 |
| 20260503195102 | 20 | 53 | 0.0 | 12.9 | 0.00 | 0.00 | 0.00 | 30 | 1016.7 |
| 20260503194503 | 20 | 173 | 0.0 | 14.5 | 0.00 | 0.00 | 0.00 | 30 | 1016.6 |
| 20260503194009 | 20 | 349 | 1.6 | 14.5 | 0.00 | 0.00 | 0.00 | 29 | 1016.8 |
| 20260503193602 | 20 | 179 | 0.0 | 8.0 | 0.00 | 0.00 | 0.00 | 29 | 1016.8 |
| 20260503193006 | 20 | 359 | 3.2 | 9.7 | 0.00 | 0.00 | 0.00 | 29 | 1016.8 |
| 20260503192512 | 20 | 168 | 3.2 | 9.7 | 0.00 | 0.00 | 0.00 | 29 | 1017.0 |
| 20260503192102 | 20 | 161 | 1.6 | 6.4 | 0.00 | 0.00 | 0.00 | 30 | 1017.0 |
| 20260503191502 | 19 | 309 | 0.0 | 11.3 | 0.00 | 0.00 | 0.00 | 30 | 1017.0 |
| 20260503191009 | 19 | 185 | 3.2 | 11.3 | 0.00 | 0.00 | 0.00 | 29 | 1017.1 |
| 20260503190604 | 19 | 197 | 0.0 | 8.0 | 0.00 | 0.00 | 0.00 | 31 | 1017.2 |
| 20260503190005 | 18 | 167 | 0.0 | 8.0 | 0.00 | 0.00 | 0.00 | 31 | 1017.3 |
| 20260503185508 | 18 | 299 | 0.0 | 6.4 | 0.00 | 0.00 | 0.00 | 29 | 1017.5 |
| 20260503185103 | 18 | 216 | 1.6 | 9.7 | 0.00 | 0.00 | 0.00 | 29 | 1017.5 |